Location: Newark
(45.8667°N, 9.7333°E)
Time: 03:20:20
(UTC+00:00)

Transit 4A - Pass Details

Date: 01 February 2020
Orbit: 872 x 973 km, 66.8° (Epoch: 16 February)

Event Time Altitude Azimuth Distance (km) Brightness Sun altitude
Rises 12:36:19 0° 328° (NNW) 3,472 10.5 25.4°
Reaches altitude 10° 12:38:49 10° 331° (NNW) 2,529 9.9 25.3°
Maximum altitude 12:44:38 69° 54° (NE) 938 8.2 25.0°
Drops below altitude 10° 12:50:29 10° 138° (SE) 2,540 10.7 24.7°
Sets 12:53:00 0° 141° (SE) 3,488 11.3 24.5°
